C/2019 L3 ( ATLAS )

Japanese version
Home page
Updated on March 27, 2023

---------------------------------------------------------------------

* Profile

Discovery Date June 10, 2019
Magnitude 18.1 mag
Discoverer Asteroid Terrestrial-Impact Last Alert System (ATLAS) search program

* Pictures

* Orbital Elements

Epoch 2023 Feb. 25.0 TT = JDT 2460000.5
T 2022 Jan.  9.64926 TT                                 Rudenko
q   3.5544196            (2000.0)            P               Q
z  -0.0005754      Peri.  171.61732     -0.26040741     -0.66641987
 +/-0.0000001      Node   290.77988     +0.83684012     +0.20510112
e   1.0020453      Incl.   48.35090     +0.48154604     -0.71681105
>From 6012 observations 2019 June 10-2023 Feb. 24, mean residual 0".4.

* Finding Charts

* Magnitudes Graph

        m1 = -2.5 + 5 log d + 17.0 log r(t - 100)

---------------------------------------------------------------------

The orbital elements are published on M.P.E.C. 2023-D72.
The charts are made with StellaNavigator Ver.10 (AstroArts).
The magnitudes graphs are made with Comet for Windows.

---------------------------------------------------------------------

Copyright(C) Seiichi Yoshida (comet@aerith.net). All rights reserved.